Time,TemperatureF,DewpointF,PressureIn,WindDirection,WindDirectionDegrees,WindSpeedMPH,WindSpeedGustMPH,Humidity,HourlyPrecipIn,Conditions,Clouds,dailyrainin,SoftwareType,DateUTC
2017-05-24 00:04:00,59.6,44.0,29.86,NW,313,2.0,-999.0,56,-99.99,,,0.00,weatherlink.com 1.10,2017-05-24 05:04:00,
2017-05-24 00:19:00,59.2,44.0,29.86,NNW,331,1.0,-999.0,57,-99.99,,,0.00,weatherlink.com 1.10,2017-05-24 05:19:00,
2017-05-24 00:34:00,58.9,44.0,29.86,WNW,302,0.0,-999.0,59,-99.99,,,0.00,weatherlink.com 1.10,2017-05-24 05:34:00,
2017-05-24 00:49:00,58.4,44.0,29.86,WNW,302,1.0,-999.0,60,-99.99,,,0.00,weatherlink.com 1.10,2017-05-24 05:49:00,
2017-05-24 01:04:00,58.1,44.0,29.85,NNW,347,4.0,-999.0,60,-99.99,,,0.00,weatherlink.com 1.10,2017-05-24 06:04:00,
2017-05-24 01:19:00,58.0,44.0,29.85,NW,323,2.0,-999.0,61,-99.99,,,0.00,weatherlink.com 1.10,2017-05-24 06:19:00,
2017-05-24 01:34:00,57.8,45.0,29.85,NW,321,2.0,-999.0,63,-99.99,,,0.00,weatherlink.com 1.10,2017-05-24 06:34:00,
2017-05-24 01:49:00,57.3,45.0,29.85,NW,306,1.0,-999.0,64,-99.99,,,0.00,weatherlink.com 1.10,2017-05-24 06:49:00,
2017-05-24 02:04:00,56.9,45.0,29.84,NW,312,0.0,-999.0,65,-99.99,,,0.00,weatherlink.com 1.10,2017-05-24 07:04:00,
2017-05-24 02:19:00,56.6,45.0,29.83,NW,323,0.0,-999.0,66,-99.99,,,0.00,weatherlink.com 1.10,2017-05-24 07:19:00,
2017-05-24 02:34:00,56.3,45.0,29.82,WNW,288,0.0,-999.0,67,-99.99,,,0.00,weatherlink.com 1.10,2017-05-24 07:34:00,
2017-05-24 02:49:00,55.9,45.0,29.82,NW,316,0.0,-999.0,67,-99.99,,,0.00,weatherlink.com 1.10,2017-05-24 07:49:00,
2017-05-24 03:04:00,55.7,45.0,29.82,NW,311,1.0,-999.0,67,-99.99,,,0.00,weatherlink.com 1.10,2017-05-24 08:04:00,
2017-05-24 03:19:00,55.7,45.0,29.81,NW,312,2.0,-999.0,67,-99.99,,,0.00,weatherlink.com 1.10,2017-05-24 08:19:00,
2017-05-24 03:34:00,55.7,45.0,29.81,WNW,291,4.0,-999.0,67,-99.99,,,0.00,weatherlink.com 1.10,2017-05-24 08:34:00,
2017-05-24 03:49:00,55.7,44.0,29.81,WNW,287,2.0,-999.0,66,-99.99,,,0.00,weatherlink.com 1.10,2017-05-24 08:49:00,
2017-05-24 04:04:00,55.7,45.0,29.80,WNW,292,2.0,-999.0,67,-99.99,,,0.00,weatherlink.com 1.10,2017-05-24 09:04:00,
2017-05-24 04:19:00,55.7,45.0,29.79,NW,320,2.0,-999.0,67,-99.99,,,0.00,weatherlink.com 1.10,2017-05-24 09:19:00,
2017-05-24 04:34:00,55.6,45.0,29.79,WNW,296,1.0,-999.0,68,-99.99,,,0.00,weatherlink.com 1.10,2017-05-24 09:34:00,
2017-05-24 04:49:00,55.3,45.0,29.79,NW,311,3.0,-999.0,69,-99.99,,,0.00,weatherlink.com 1.10,2017-05-24 09:49:00,
2017-05-24 05:04:00,54.8,45.0,29.79,NW,311,2.0,-999.0,70,-99.99,,,0.00,weatherlink.com 1.10,2017-05-24 10:04:00,
2017-05-24 05:19:00,54.5,45.0,29.79,NW,308,3.0,-999.0,71,-99.99,,,0.00,weatherlink.com 1.10,2017-05-24 10:19:00,
2017-05-24 05:34:00,54.4,46.0,29.79,NNW,327,2.0,-999.0,72,-99.99,,,0.00,weatherlink.com 1.10,2017-05-24 10:34:00,
2017-05-24 05:49:00,54.1,45.0,29.79,NNW,331,2.0,-999.0,72,-99.99,,,0.00,weatherlink.com 1.10,2017-05-24 10:49:00,
2017-05-24 06:04:00,53.8,45.0,29.79,NNW,340,3.0,-999.0,73,-99.99,,,0.00,weatherlink.com 1.10,2017-05-24 11:04:00,
2017-05-24 06:19:00,53.6,45.0,29.79,WNW,291,2.0,-999.0,73,-99.99,,,0.00,weatherlink.com 1.10,2017-05-24 11:19:00,
2017-05-24 06:34:00,53.5,45.0,29.79,NW,315,1.0,-999.0,73,-99.99,,,0.00,weatherlink.com 1.10,2017-05-24 11:34:00,
2017-05-24 06:49:00,53.5,45.0,29.80,WNW,290,3.0,-999.0,73,-99.99,,,0.00,weatherlink.com 1.10,2017-05-24 11:49:00,
2017-05-24 07:04:00,53.8,45.0,29.80,NW,311,3.0,-999.0,73,-99.99,,,0.00,weatherlink.com 1.10,2017-05-24 12:04:00,
2017-05-24 07:19:00,54.2,45.0,29.80,WNW,286,3.0,-999.0,72,-99.99,,,0.00,weatherlink.com 1.10,2017-05-24 12:19:00,
2017-05-24 07:34:00,54.7,45.0,29.80,NNW,327,3.0,-999.0,71,-99.99,,,0.00,weatherlink.com 1.10,2017-05-24 12:34:00,
2017-05-24 07:49:00,55.3,45.0,29.81,NNW,342,4.0,-999.0,69,-99.99,,,0.00,weatherlink.com 1.10,2017-05-24 12:49:00,
2017-05-24 08:04:00,55.9,45.0,29.80,NW,323,4.0,-999.0,68,-99.99,,,0.00,weatherlink.com 1.10,2017-05-24 13:04:00,
2017-05-24 08:20:00,56.6,45.0,29.80,North,5,7.0,-999.0,65,-99.99,,,0.00,weatherlink.com 1.10,2017-05-24 13:20:00,
2017-05-24 08:35:00,57.0,45.0,29.80,NW,313,5.0,-999.0,65,-99.99,,,0.00,weatherlink.com 1.10,2017-05-24 13:35:00,
2017-05-24 08:50:00,57.3,45.0,29.80,NW,312,4.0,-999.0,63,-99.99,,,0.00,weatherlink.com 1.10,2017-05-24 13:50:00,
2017-05-24 09:05:00,58.0,45.0,29.80,NNW,334,0.0,-999.0,62,-99.99,,,0.00,weatherlink.com 1.10,2017-05-24 14:05:00,
2017-05-24 09:20:00,58.7,45.0,29.81,West,281,4.0,-999.0,61,-99.99,,,0.00,weatherlink.com 1.10,2017-05-24 14:20:00,
2017-05-24 09:35:00,59.3,45.0,29.81,NW,317,3.0,-999.0,60,-99.99,,,0.00,weatherlink.com 1.10,2017-05-24 14:35:00,
2017-05-24 09:50:00,60.1,45.0,29.80,NW,323,3.0,-999.0,58,-99.99,,,0.00,weatherlink.com 1.10,2017-05-24 14:50:00,
2017-05-24 10:05:00,60.1,45.0,29.80,WNW,293,3.0,-999.0,57,-99.99,,,0.00,weatherlink.com 1.10,2017-05-24 15:05:00,
2017-05-24 10:20:00,60.5,45.0,29.80,NNW,336,4.0,-999.0,56,-99.99,,,0.00,weatherlink.com 1.10,2017-05-24 15:20:00,
2017-05-24 10:35:00,62.4,44.0,29.80,North,5,6.0,-999.0,52,-99.99,,,0.00,weatherlink.com 1.10,2017-05-24 15:35:00,
2017-05-24 10:50:00,63.9,45.0,29.80,WNW,300,4.0,-999.0,50,-99.99,,,0.00,weatherlink.com 1.10,2017-05-24 15:50:00,
2017-05-24 11:05:00,64.0,44.0,29.79,WNW,293,7.0,-999.0,49,-99.99,,,0.00,weatherlink.com 1.10,2017-05-24 16:05:00,
2017-05-24 11:20:00,63.7,44.0,29.79,WNW,302,3.0,-999.0,49,-99.99,,,0.00,weatherlink.com 1.10,2017-05-24 16:20:00,
2017-05-24 11:35:00,63.1,44.0,29.79,NNW,329,2.0,-999.0,50,-99.99,,,0.00,weatherlink.com 1.10,2017-05-24 16:35:00,
2017-05-24 11:50:00,63.5,44.0,29.79,West,281,5.0,-999.0,49,-99.99,,,0.00,weatherlink.com 1.10,2017-05-24 16:50:00,
2017-05-24 12:05:00,64.2,43.0,29.79,North,355,4.0,-999.0,47,-99.99,,,0.00,weatherlink.com 1.10,2017-05-24 17:05:00,
2017-05-24 12:20:00,64.3,43.0,29.79,West,278,6.0,-999.0,47,-99.99,,,0.00,weatherlink.com 1.10,2017-05-24 17:20:00,
2017-05-24 12:35:00,63.9,43.0,29.79,West,281,4.0,-999.0,47,-99.99,,,0.00,weatherlink.com 1.10,2017-05-24 17:35:00,
2017-05-24 12:50:00,66.1,45.0,29.79,NW,318,4.0,-999.0,46,-99.99,,,0.00,weatherlink.com 1.10,2017-05-24 17:50:00,
2017-05-24 13:05:00,66.3,44.0,29.78,WNW,291,3.0,-999.0,44,-99.99,,,0.00,weatherlink.com 1.10,2017-05-24 18:05:00,
2017-05-24 13:20:00,67.1,44.0,29.78,North,355,7.0,-999.0,43,-99.99,,,0.00,weatherlink.com 1.10,2017-05-24 18:20:00,
2017-05-24 13:35:00,67.4,41.0,29.78,NNW,334,11.0,-999.0,39,-99.99,,,0.00,weatherlink.com 1.10,2017-05-24 18:35:00,
2017-05-24 13:50:00,67.1,43.0,29.78,NNW,330,12.0,-999.0,42,-99.99,,,0.00,weatherlink.com 1.10,2017-05-24 18:50:00,